• In Uzbekistan
  • List of Countries
  • For 7 days
  • Water Temperature
  • Satellite Maps
  • Weather Map
  • Weather Widgets
  • user-avatar
    Login

    Hourly Weather Prutz

    Today, 28 May, Sunday

    Time Temperature Precipitation Wind Pressure Humidity
    00:00 +7°C° 0 mm 1 mps 636 mmHg 93%
    01:00 +6°C° 0 mm 1 mps 636 mmHg 91%
    02:00 +6°C° 0 mm 1 mps 635 mmHg 91%
    03:00 +6°C° 0 mm 1 mps 635 mmHg 90%
    04:00 +6°C° 0 mm 1 mps 635 mmHg 89%
    05:00 +8°C° 0 mm 1 mps 637 mmHg 84%
    06:00 +11°C° 0 mm 1 mps 638 mmHg 79%
    07:00 +14°C° 0 mm 1 mps 639 mmHg 74%
    08:00 +16°C° 0 mm 1 mps 640 mmHg 64%
    09:00 +19°C° 0 mm 1 mps 640 mmHg 54%
    10:00 +21°C° 0 mm 1 mps 641 mmHg 44%
    11:00 +22°C° 0 mm 1 mps 641 mmHg 42%
    12:00 +23°C° 0 mm 1 mps 641 mmHg 40%
    13:00 +23°C° 0 mm 1 mps 641 mmHg 38%
    14:00 +23°C° 0 mm 1 mps 641 mmHg 40%
    15:00 +23°C° 0 mm 2 mps 640 mmHg 42%
    16:00 +21°C° 0 mm 2 mps 640 mmHg 44%
    17:00 +20°C° 0.1 mm 1 mps 639 mmHg 56%
    18:00 +19°C° 0.1 mm 1 mps 639 mmHg 67%
    19:00 +16°C° 0.1 mm 1 mps 638 mmHg 78%
    20:00 +13°C° 0 mm 1 mps 637 mmHg 84%
    21:00 +9°C° 0 mm 0 mps 636 mmHg 89%
    22:00 +7°C° 0 mm 0 mps 635 mmHg 94%
    23:00 +8°C° 0 mm 1 mps 635 mmHg 92%

    Tomorrow, 29 May, Monday

    Time Temperature Precipitation Wind Pressure Humidity
    00:00 +8°C° 0 mm 1 mps 635 mmHg 91%
    01:00 +9°C° 0 mm 1 mps 636 mmHg 90%
    02:00 +8°C° 0 mm 1 mps 635 mmHg 90%
    03:00 +8°C° 0 mm 1 mps 635 mmHg 90%
    04:00 +8°C° 0 mm 1 mps 634 mmHg 89%
    05:00 +10°C° 0 mm 1 mps 635 mmHg 84%
    06:00 +13°C° 0 mm 1 mps 636 mmHg 78%
    07:00 +14°C° 0 mm 0 mps 637 mmHg 72%
    08:00 +16°C° 0 mm 0 mps 638 mmHg 63%
    09:00 +21°C° 0 mm 1 mps 638 mmHg 54%
    10:00 +23°C° 0 mm 1 mps 639 mmHg 44%
    11:00 +23°C° 0 mm 1 mps 639 mmHg 43%
    12:00 +24°C° 0 mm 1 mps 639 mmHg 41%
    13:00 +24°C° 0 mm 1 mps 638 mmHg 39%
    14:00 +24°C° 0.2 mm 1 mps 638 mmHg 45%
    15:00 +23°C° 0.2 mm 1 mps 637 mmHg 50%
    16:00 +22°C° 0.2 mm 1 mps 637 mmHg 56%
    17:00 +20°C° 0.3 mm 1 mps 637 mmHg 65%
    18:00 +19°C° 0.3 mm 1 mps 636 mmHg 74%
    19:00 +18°C° 0.3 mm 1 mps 636 mmHg 84%
    20:00 +15°C° 0.7 mm 1 mps 635 mmHg 87%
    21:00 +13°C° 0.7 mm 1 mps 635 mmHg 91%
    22:00 +10°C° 0.7 mm 0 mps 634 mmHg 95%
    23:00 +11°C° 0.7 mm 1 mps 634 mmHg 95%

    Day after tomorrow, 30 May, Tuesday

    Time Temperature Precipitation Wind Pressure Humidity
    00:00 +11°C° 0.7 mm 1 mps 634 mmHg 96%
    01:00 +11°C° 0.7 mm 1 mps 635 mmHg 96%
    02:00 +11°C° 0.4 mm 1 mps 634 mmHg 96%
    03:00 +11°C° 0.4 mm 1 mps 634 mmHg 96%
    04:00 +10°C° 0.4 mm 1 mps 634 mmHg 96%
    05:00 +12°C° 0.1 mm 1 mps 635 mmHg 94%
    06:00 +13°C° 0.1 mm 1 mps 635 mmHg 92%
    07:00 +13°C° 0.1 mm 0 mps 636 mmHg 90%
    08:00 +16°C° 0.3 mm 1 mps 636 mmHg 85%
    09:00 +18°C° 0.3 mm 1 mps 637 mmHg 81%
    10:00 +19°C° 0.3 mm 1 mps 637 mmHg 76%
    11:00 +19°C° 1 mm 1 mps 637 mmHg 77%
    12:00 +19°C° 1 mm 1 mps 637 mmHg 78%
    13:00 +20°C° 1 mm 1 mps 637 mmHg 78%
    14:00 +19°C° 1.5 mm 1 mps 637 mmHg 79%
    15:00 +19°C° 1.5 mm 1 mps 637 mmHg 80%
    16:00 +19°C° 1.5 mm 1 mps 636 mmHg 81%
    17:00 +18°C° 1.7 mm 1 mps 636 mmHg 85%
    18:00 +16°C° 1.7 mm 1 mps 636 mmHg 89%
    19:00 +15°C° 1.7 mm 1 mps 636 mmHg 93%
    20:00 +14°C° 1.7 mm 1 mps 636 mmHg 95%
    21:00 +13°C° 1.7 mm 1 mps 636 mmHg 96%
    22:00 +12°C° 1.7 mm 1 mps 636 mmHg 97%
    23:00 +12°C° 0.7 mm 1 mps 636 mmHg 97%

    31 May, Wednesday

    Time Temperature Precipitation Wind Pressure Humidity
    00:00 +12°C° 0.7 mm 1 mps 636 mmHg 97%
    01:00 +11°C° 0.7 mm 1 mps 636 mmHg 98%
    02:00 +11°C° 0.2 mm 1 mps 635 mmHg 98%
    03:00 +10°C° 0.2 mm 1 mps 635 mmHg 98%
    04:00 +10°C° 0.2 mm 1 mps 635 mmHg 98%
    05:00 +11°C° 0 mm 1 mps 635 mmHg 96%
    06:00 +11°C° 0 mm 0 mps 636 mmHg 93%
    07:00 +13°C° 0 mm 0 mps 636 mmHg 91%
    08:00 +15°C° 0 mm 1 mps 637 mmHg 83%
    09:00 +16°C° 0 mm 1 mps 637 mmHg 75%
    10:00 +19°C° 0 mm 1 mps 638 mmHg 67%
    11:00 +19°C° 0.5 mm 1 mps 638 mmHg 70%
    12:00 +19°C° 0.5 mm 1 mps 637 mmHg 73%
    13:00 +18°C° 0.5 mm 2 mps 637 mmHg 76%
    14:00 +17°C° 1.2 mm 2 mps 637 mmHg 80%
    15:00 +18°C° 1.2 mm 1 mps 637 mmHg 83%
    16:00 +16°C° 1.2 mm 1 mps 636 mmHg 86%
    17:00 +15°C° 1.4 mm 1 mps 636 mmHg 89%
    18:00 +14°C° 1.4 mm 1 mps 636 mmHg 92%
    19:00 +13°C° 1.4 mm 1 mps 636 mmHg 96%
    20:00 +13°C° 0.5 mm 1 mps 636 mmHg 96%
    21:00 +12°C° 0.5 mm 1 mps 636 mmHg 97%
    22:00 +11°C° 0.5 mm 0 mps 636 mmHg 98%
    23:00 +10°C° 0.2 mm 0 mps 636 mmHg 98%

    1 June, Thursday

    Time Temperature Precipitation Wind Pressure Humidity
    00:00 +10°C° 0.2 mm 0 mps 636 mmHg 98%
    01:00 +9°C° 0.2 mm 0 mps 636 mmHg 98%
    02:00 +9°C° 0.2 mm 0 mps 635 mmHg 98%
    03:00 +9°C° 0.2 mm 0 mps 635 mmHg 98%
    04:00 +10°C° 0.2 mm 1 mps 635 mmHg 98%
    05:00 +11°C° 0.3 mm 1 mps 636 mmHg 97%
    06:00 +11°C° 0.3 mm 1 mps 636 mmHg 96%
    07:00 +12°C° 0.3 mm 1 mps 636 mmHg 95%
    08:00 +13°C° 0.3 mm 1 mps 637 mmHg 91%
    09:00 +13°C° 0.3 mm 1 mps 637 mmHg 87%
    10:00 +14°C° 0.3 mm 1 mps 637 mmHg 83%
    11:00 +15°C° 0.8 mm 1 mps 637 mmHg 82%
    12:00 +15°C° 0.8 mm 1 mps 637 mmHg 80%
    13:00 +15°C° 0.8 mm 1 mps 637 mmHg 79%
    14:00 +15°C° 1.4 mm 1 mps 637 mmHg 79%
    15:00 +14°C° 1.4 mm 1 mps 637 mmHg 80%
    16:00 +14°C° 1.4 mm 1 mps 637 mmHg 80%
    17:00 +14°C° 0.8 mm 1 mps 637 mmHg 83%
    18:00 +13°C° 0.8 mm 1 mps 637 mmHg 86%
    19:00 +13°C° 0.8 mm 1 mps 636 mmHg 89%
    20:00 +11°C° 0.2 mm 1 mps 636 mmHg 92%
    21:00 +9°C° 0.2 mm 0 mps 636 mmHg 95%
    22:00 +7°C° 0.2 mm 0 mps 635 mmHg 98%
    23:00 +7°C° 0 mm 0 mps 635 mmHg 97%

    2 June, Friday

    Time Temperature Precipitation Wind Pressure Humidity
    00:00 +6°C° 0 mm 0 mps 635 mmHg 97%
    01:00 +5°C° 0 mm 0 mps 634 mmHg 97%
    02:00 +5°C° 0 mm 0 mps 634 mmHg 97%
    03:00 +4°C° 0 mm 0 mps 634 mmHg 97%
    04:00 +4°C° 0 mm 0 mps 634 mmHg 97%
    05:00 +7°C° 0 mm 0 mps 635 mmHg 93%
    06:00 +9°C° 0 mm 0 mps 636 mmHg 89%
    07:00 +12°C° 0 mm 0 mps 637 mmHg 85%
    08:00 +14°C° 0 mm 0 mps 638 mmHg 76%
    09:00 +15°C° 0 mm 0 mps 638 mmHg 68%
    10:00 +19°C° 0 mm 1 mps 639 mmHg 60%
    11:00 +20°C° 0.1 mm 1 mps 639 mmHg 58%
    12:00 +20°C° 0.1 mm 1 mps 639 mmHg 56%
    13:00 +21°C° 0.1 mm 1 mps 639 mmHg 54%
    14:00 +20°C° 0.4 mm 1 mps 638 mmHg 58%
    15:00 +19°C° 0.4 mm 2 mps 638 mmHg 63%
    16:00 +18°C° 0.4 mm 2 mps 638 mmHg 68%
    17:00 +18°C° 0.3 mm 1 mps 637 mmHg 74%
    18:00 +16°C° 0.3 mm 1 mps 637 mmHg 81%
    19:00 +15°C° 0.3 mm 1 mps 637 mmHg 88%
    20:00 +12°C° 0.1 mm 1 mps 636 mmHg 91%
    21:00 +9°C° 0.1 mm 0 mps 636 mmHg 94%
    22:00 +7°C° 0.1 mm 0 mps 635 mmHg 98%
    23:00 +7°C° 0 mm 0 mps 635 mmHg 97%
    Show more